"Pseudo-MPEC" for C5R5KC2

Created 2021 Jun 13 1:07:18 UT using Find_Orb

Click here for an explanation of pseudo-MPECs

 
 Astrometry: 
     C5R5KC2  C2021 06 11.28019315 47 34.68 -07 10 38.5    ~6B7M 19.33GVNEOCPG96
     C5R5KC2  C2021 06 11.28542615 47 38.28 -07 09 49.4    ~6B7M 19.33GVNEOCPG96
     C5R5KC2  C2021 06 11.29065315 47 41.87 -07 09 00.3    ~6B7M 19.72GVNEOCPG96
     C5R5KC2  C2021 06 11.29587515 47 45.46 -07 08 11.3    ~6B7M 19.41GVNEOCPG96
     C5R5KC2 KC2021 06 11.31467615 47 58.39 -07 05 15.5    ~6B87       VNEOCPI52
     C5R5KC2 KC2021 06 11.31568415 47 59.08 -07 05 05.5    ~6B87       VNEOCPI52
     C5R5KC2 KC2021 06 11.31669415 47 59.78 -07 04 55.6    ~6B87 19.65GVNEOCPI52
     C5R5KC2 KC2021 06 11.31770415 48 00.48 -07 04 46.1    ~6B87 19.40GVNEOCPI52
     C5R5KC2 KC2021 06 11];YwS(t_.t_$EMv2V4nQ!v?N#OapAZT\m+ive=5N7NR6NH2pdl)F474
     C5R5KC2 KC2021 06 11I2-?Shsi[Y21DO!L@O%0+-2$(\vN?BwQO^=j'S#9GBstISL.`8@b474
     C5R5KC2 KC2021 06 11:n[\E22ap)+Q6.DUVfN*\Q7b:Q@pt]0BmgQY)!b4SyCw.S67TBNq474
     C5R5KC2 KC2021 06 11\YqOF_:h$-0/@90('=[JoCWgZnuVvl8Vdn_dTyR2,AU+/]#Darh?474
     C5R5KC2 KC2021 06 119g42'JtEY/LY;^?XYAstrometryFge/$h-@:O9-QA=Dgr!`,02?KE23
     C5R5KC2 KC2021 06 1188*^YIG^kUX+*ql6w4SvjuHl[redacted;.VGM\LfNW$.ZLFL[X1E23
     C5R5KC2 KC2021 06 11?O$U8cV\^%Ns3+t;AG'pX_X81XdF6vf?TuEF^(v[WInD/]Ej-#P?E23
     C5R5KC2  C2021 06 11o;QZg0(`#,dbl8C#k?`U#+EdbO*Wk[k-#UicsFo7b1*UT-KF'1U^N51
     C5R5KC2  C2021 06 11pH2*RiOh56kjclick%.%XUBi9QDGD(3yf]S4o]A82/MHT'b6-tkON51
     C5R5KC2 KC2021 06 11.90228315 55 26.25 -05 32 06.2    ~6BM7 18.6 GVNEOCPI93
     C5R5KC2 KC2021 06 11.90550815 55 28.55 -05 31 35.3    ~6BM7 19.7 GVNEOCPI93
     C5R5KC2 hC2021 06 11d+b,(,4o_,8h!v/9brge_lCuS=@\'%i1DuymZSyMBT#+neX5*^NQL01
     C5R5KC2 hC2021 06 11'I*ECALI]p4\k4Og)-c]0I+O'tZeHemKIlIjrN4,0Zt9:vGY41(sL01
     C5R5KC2 KC2021 06 11.90872915 55 30.82 -05 31 04.0    ~6BM7 19.6 GVNEOCPI93
     C5R5KC2 hC2021 06 11`/ntup_Bv/4Ey,='A#kUR_In[pMI'VCA?k:a!6]dJ\WSER1kacP0L01
     C5R5KC2 hC2021 06 111e^5anX\4#x(dT?C^\l\,#Mmf#Wwh75Wx^i[Ll3.1gM3`KKv%qX2L01
     C5R5KC2 hC2021 06 11t+Y:b7k+N'b'?RExOS/q[v1,-1sfwnKW.4Hsv[[WTgsy@#RON3L_L01
     C5R5KC2 KC2021 06 11?(l+!X(I^_2ra2k8Go!HCTh,qNtw3m%Yx[l'*P@\(mt)Mherei^OA17
     C5R5KC2 KC2021 06 1128qfyC:s@'fa?[SF?)@6+RvHY@,c,yZsxWgqRo7RVVgcV`lwvQS;A17
     C5R5KC2 KC2021 06 11]*=$#Y0Vn]TKKK#@=UPsv9P]_'36Z(MECB##SYq6hB;9F[0U1*,J160
     C5R5KC2 KC2021 06 11ZCcaVSu_:^J6;MCuxZc@uV@1gPvK\!_%d5utDi3nNuI#s]@n3Q4xA17
     C5R5KC2 KC2021 06 11rdtCFu(%:(;XWiVG%'Q*TNBuB/LV-Du[AA1I!K+)b+_c.D9?)GmK160
     C5R5KC2 KC2021 06 11Bi4HEAF@Vggjq8Ogu8r5UZSML)u?.qbB@.=@(sbx;,IS\6ON/)Cq160
     C5R5KC2 KC2021 06 11]KD@F=N=J7hAXJotI0rccljL0to\1@R@wZ^#+ukL-pA'?+bko$T;160
     C5R5KC2 KC2021 06 11oCPbTJB`ksA)wLXBRf8NG1YcW(BexkFX4P@B)E5JNfP-c\M!0NgD160
     C5R5KC2 KC2021 06 118DZcXK/69_V5:L_Bh(Luk/GsP4qB2xuV'_m@D#V^*NxFKf(w;N,q204
     C5R5KC2 KC2021 06 12OZforG=QD))F$:(=aHbXH-RHXr+/g3explanationp^bP`%[*.?P204
     C5R5KC2 KC2021 06 12fYX*t[F89;S=2KHB9[8Qwh7#AdBLQU^5Os[Bg57ghTnWval48jVPH21
     C5R5KC2 KC2021 06 12FYK1Vw16Q;/f7v!NdD\l9:S,(kv8uvqG-'x#m4..Dty@PM^N/V@#H21
     C5R5KC2 KC2021 06 12pM/R_jn[;CCmF6(UxL)QF3$+;ha5E2bT[m/O(KD%H79s5kErCF`!H21
     C5R5KC2 KC2021 06 12Q!Cl7hXyvwZi`cL1a+3y1rrrs;YpI4:oK(N%%%9He#NPZc=EjjFbH21
     C5R5KC2 KC2021 06 12?W4RM7fg,8J4qO90w$gT,`#+bG+$c$[QVbhC*u5T/`]IpZM8`\D!V01
     C5R5KC2 KC2021 06 12`bIk@fp!=,#G[lUER8H#sO;319he:NM=sG*iHp@bMgD@CCr[ku.@858
     C5R5KC2 KC2021 06 126vR)dqDlEaeFE/oGY50,V.Ly+y5vtwpesn7t8]sT#?Sfh!EWe+4M858
     C5R5KC2 KC2021 06 122gX1V._TXJM[??/1(?%!sEjND!9P5@WR'3`fgrkoSd4ujxoJhoDp858
     C5R5KC2 KC2021 06 12:EcD5)`l[AYu-!mxp!b^q8Npaxp)Hnybmb`(ENAbUNc'YWC=O5kEV01
     C5R5KC2 KC2021 06 12vDoYlcX.0tn9?nAy5)T=l1xKhvBq14pb2eA$(T29NZ,HNMG=1VZ#V01
     C5R5KC2 KC2021 06 12.95989716 09 15.64 -02 35 42.1    ~6CNq 19.1 RqNEOCPJ95
     C5R5KC2 KC2021 06 12.96348316 09 18.36 -02 35 05.0    ~6CNq 19.0 RqNEOCPJ95
     C5R5KC2 KC2021 06 12.96897316 09 22.57 -02 34 08.4    ~6CNq 19.0 RqNEOCPJ95
     C5R5KC2 KC2021 06 12.97722616 09 28.86 -02 32 43.3    ~6CNq 19.0 RqNEOCPJ95
     C5R5KC2 KC2021 06 12A3O//q[t_Q6qq2Oyf;lnuRI@7NUnohwXQI9K.EbZN/o:%bb:Y$tQK38
     C5R5KC2 KC2021 06 13De%yZtAWRrlxi7:#-h2\kDlYWp-.nM3H--i`E,:hw.k*vW`XI%VoZ99
     C5R5KC2 KC2021 06 1384eyB3L0[Y=%xWAw=5?nw0RsA9+jra_0O$/Ll\\MoS,Ge'D(=Q9MZ99
     C5R5KC2 KC2021 06 13)fIvqmn3-$ehhW$$_sXkAws?Yi]0]dnI3ju[_bh=$S_G1c%p]];XK38
     C5R5KC2 KC2021 06 1344wn$4$;Srd@=9!Uis4wY[.v`XYxsk2bCZfW_'01E+N9,*nPX(M7Z99
     C5R5KC2 KC2021 06 13=[3$mGVflBN5#nGOW'OVhI:\yr?Lc\aQ:Txptjm#Zpq'f!8mPU#rK38

Station data:
(160) Castelmartini  (N43.823061 E10.841440)  Italy.
(204) Schiaparelli Observatory  (N45.867933 E8.770800)  Italy.  Observer L.
   Buzzi. 0.60-m f/4.64 Newtonian + CCD.
(474) Mount John Observatory, Lake Tekapo  (S43.987388 E170.464960)  New
   Zealand.  Observers A. C. Gilmore, P. M. Kilmartin. Measurer P. M.
   Kilmartin. 1.0-m f/7.7 reflector + CCD.
(858) Tebbutt Observatory, Edgewood  (N35.093872 W106.220000)  US/New Mexico.
(A17) Guidestar Observatory, Weinheim  (N49.545393 E8.681520)  Germany.
(E23) Arcadia  (S33.621199 E151.071190)  Australia/NSW.
(G96) Mt. Lemmon Survey  (N32.442754 W110.788720)  US/Arizona.  Observers T.
   A. Pruyne, B. M. Africano, E. J. Christensen, G. A. Farneth, D. C. Fuls,
   A. R. Gibbs, A. D. Grauer, H. Gröller, J. A. Johnson, R. A. Kowalski, S.
   M. Larson, G. J. Leonard, D. Rankin, R. L. Seaman, F. C. Shelly. 1.5-m
   reflector + 10K CCD.
(H21) Astronomical Research Observatory, Westfield  (N39.483057 W87.968270)
   US/Illinois. 0.76-m f/3.0 astrograph + CCD.
(I52) Steward Observatory, Mt. Lemmon Station  (N32.442547 W110.788920)
   US/Arizona.  Observers T. A. Pruyne, B. M. Africano, E. J. Christensen, G.
   A. Farneth, D. C. Fuls, A. R. Gibbs, A. D. Grauer, H. Gröller, J. A.
   Johnson, R. A. Kowalski, S. M. Larson, G. J. Leonard, D. Rankin, R. L.
   Seaman, F. C. Shelly. 1.0-m reflector + CCD.
(I93) St Pardon de Conques  (N44.558710 W0.203000)  France.  Observer F.
   Losse. 0.40-m f/3.7 reflector + CCD.
(J95) Great Shefford  (N51.474969 W1.447003)  UK.  Observer P. Birtwhistle.
   0.40-m f/6.0 Schmidt-Cassegrain + CCD.
(K38) M57 Observatory, Saltrio  (N45.873785 E8.918240)  Italy.
(L01) Višnjan Observatory, Tičan  (N45.290900 E13.749300)  Croatia.
   Observers K. Korlević, E. Pettarin. Measurer E. Pettarin. 1.0-m f/2.9
   reflector + CCD.
(N51) GROWTH India Telescope, IAO, Hanle  (N32.779244 E78.964610)  India.
(V01) Mountainville Observatory, Alpine  (N40.448904 W111.760890)  US/Utah.
(Z99) Clixby Observatory, Cleethorpes  (N53.546062 W0.021260)  UK.

Orbital elements:  C5R5KC2
   Perihelion 2021 Jun 23.464035 +/- 0.00501523 TT = 11:08:12 (JD 2459388.964035)
Epoch 2021 Jun 13.0 TT = JDT 2459378.5   Earth MOID: 0.0507   AutoNEOCP
M 356.60000954 +/- 0.0071446        (J2000 ecliptic)
n   0.32492155 +/- 0.000647389      Peri.   18.35181 +/- 0.0064772
a   2.09548085 +/- 0.00278336       Node   254.20539 +/- 0.0018358
e   0.4957222 +/- 0.000648457       Incl.    7.76387 +/- 0.0071894
P   3.03                   H 24.7   G  0.15   U  7.8  
q 1.05670433 +/- 4.63196e-5    Q 3.13425736 +/- 0.00553286
From 55 observations 2021 June 11-13 (41.8 hr); mean residual 0".39
Residuals in arcseconds: 
210611 G96  .06+  .08-    210611 L01  .42-  .79+    210612 H21  .20-  .05+    
210611 G96  .25+  .05-    210611 L01  .71-  .41+    210612 V01  1.0+  .47+    
210611 G96  .30+  .01+    210611 I93  .72-  .20-    210612 858  .24-  .06-    
210611 G96  .35+  .02-    210611 L01  .39-  .04+    210612 858  .12-  .25-    
210611 I52  .07+  1.0-    210611 L01  .17-  .42+    210612 858  .32-  .25-    
210611 I52  .02-  .52-    210611 L01  .10+  .25-    210612 V01  .26-  .10+    
210611 I52  .02+  .13-    210611 A17  .67-  .17+    210612 V01  .03-  .52-    
210611 I52  .05+  .14-    210611 A17  .05-  .21+    210612 J95  .30+  .30-    
210611 474  .16+  .22-    210611 160  .04+  .02-    210612 J95  .04-  .12-    
210611 474  .03-  .20-    210611 A17  .17+  .04+    210612 J95  .10+  .05-    
210611 474  .22-  .26-    210611 160  .65+  .55+    210612 J95  .33-  .04+    
210611 474  .27+  .11-    210611 160  .62+  .29+    210612 K38  .75+  .42+    
210611 E23  .32+  .55+    210611 160  .84+  .72+    210613 Z99  .00   .08+    
210611 E23  .03-  .83+    210611 160  .53+  .18+    210613 Z99  .25-  .05-    
210611 E23  .13+  .12-    210611 204  .18+  .12-    210613 K38  .29+  .93+    
210611 N51  1.1-  1.1-    210612 204  .07-  .17+    210613 Z99  .04+  .08+    
210611 N51  .00   .44+    210612 H21  .30-  .14+    210613 K38  .14-  .07+    
210611 I93  .27+  .23+    210612 H21  .20-  .08+    
210611 I93  .02-  .20-    210612 H21  .58-  .41+    

Ephemerides (geocentric):
Date (UTC) HH   RA              Dec         delta   r     elong  mag " sig PA
---- -- -- --  -------------   -----------  ------ ------ -----  --- ---- ---
2021 06 13 01  16 10 22.101   -02 19 28.01  .05407 1.0638 152.4 19.7 .156   5
2021 06 13 02  16 10 55.886   -02 12 17.35  .05402 1.0637 152.4 19.7 .159   6
2021 06 13 03  16 11 29.735   -02 05 05.92  .05396 1.0637 152.3 19.7 .163   6
2021 06 13 04  16 12 03.649   -01 57 53.71  .05391 1.0636 152.3 19.7 .166   6
2021 06 13 05  16 12 37.627   -01 50 40.74  .05386 1.0636 152.2 19.7 .169   7
2021 06 13 06  16 13 11.669   -01 43 27.01  .05381 1.0635 152.2 19.7 .173   7
2021 06 13 07  16 13 45.775   -01 36 12.55  .05376 1.0635 152.2 19.7 .177   7
2021 06 13 08  16 14 19.944   -01 28 57.35  .05372 1.0634 152.1 19.7 .180   8
2021 06 13 09  16 14 54.175   -01 21 41.44  .05367 1.0634 152.1 19.7 .184   8
2021 06 13 10  16 15 28.469   -01 14 24.81  .05362 1.0633 152.1 19.7 .188   9
2021 06 13 11  16 16 02.825   -01 07 07.49  .05357 1.0632 152.0 19.7 .191   9
2021 06 13 12  16 16 37.244   -00 59 49.48  .05353 1.0632 152.0 19.7 .195   9
2021 06 13 13  16 17 11.723   -00 52 30.80  .05348 1.0631 151.9 19.7 .199  10
